[Iaude] MPEC C153: 2024 CB4 [a=1.92,e=0.49,i=8.7,H=24.5]
    mpec at cfa.harvard.edu 
    mpec at cfa.harvard.edu
       
    Tue Feb 13 18:58:08 EST 2024
    
    
  
M.P.E.C. 2024-C153                            Issued 2024 February 13, 23:56 UT
     The Minor Planet Electronic Circulars contain information on unusual
         minor planets, routine data on comets and natural satellites,
         and occasional editorial announcements.  They are published
    on behalf of Division F of the International Astronomical Union by the
          Minor Planet Center, Smithsonian Astrophysical Observatory,
                          Cambridge, MA 02138, U.S.A.
			  
             Prepared using the Tamkin Foundation Computer Network
                              MPC at CFA.HARVARD.EDU
            URL https://www.minorplanetcenter.net/    ISSN 1523-6714
                                    2024 CB4                                    
Observations:
     K24C04B* C2024 02 12.59117411 29 57.228+08 15 25.77         20.70wXEC153F52
     K24C04B  C2024 02 12.60301411 30 02.244+08 13 19.04         20.04wXEC153F52
     K24C04B  C2024 02 12.61483111 30 07.290+08 11 11.96         20.01wXEC153F52
     K24C04B  C2024 02 12.62658711 30 12.301+08 09 05.66         20.16wXEC153F52
     K24C04B KB2024 02 12.97920711 33 06.15 +07 04 16.4          19.7 GXEC153I93
     K24C04B KB2024 02 13.01085911 33 20.34 +06 58 25.1          19.8 GXEC153I93
     K24C04B KB2024 02 13.03398511 33 30.80 +06 54 08.2          19.8 GXEC153958
     K24C04B KB2024 02 13.03839611 33 32.72 +06 53 20.1          19.7 GXEC153958
     K24C04B KB2024 02 13.04270911 33 34.71 +06 52 32.4          19.8 GXEC153958
     K24C04B 1C2024 02 13.07872 11 33 49.62 +06 45 37.4          20.5 VXEC153033
     K24C04B 1C2024 02 13.07912 11 33 49.82 +06 45 33.4          20.6 VXEC153033
     K24C04B 1C2024 02 13.07953 11 33 49.94 +06 45 28.5          20.1 VXEC153033
     K24C04B HC2024 02 13.08283 11 33 51.65 +06 44 58.7          20.1 GVEC153204
     K24C04B KC2024 02 13.09420 11 33 56.75 +06 42 50.8                VEC153204
     K24C04B |C2024 02 13.25117911 35 15.270+06 15 33.70         20.1 GVEC153807
     K24C04B |C2024 02 13.25448711 35 16.740+06 14 56.00         19.9 GVEC153807
     K24C04B |C2024 02 13.25785011 35 18.220+06 14 17.90         20.1 GVEC153807
     K24C04B |C2024 02 13.26115011 35 19.700+06 13 40.00         20.4 GVEC153807
     K24C04B  C2024 02 13.26814811 35 26.495+06 10 14.85         20.1 GVEC153H01
     K24C04B  C2024 02 13.27306511 35 28.747+06 09 18.99         20.0 GVEC153H01
     K24C04B  C2024 02 13.28207911 35 32.871+06 07 35.87         19.4 GVEC153H01
     K24C04B  C2024 02 13.28900711 35 36.024+06 06 17.00         19.5 GVEC153H01
     K24C04B KC2024 02 13.30878711 35 44.89 +06 02 28.2          19.9 GXEC153858
     K24C04B KC2024 02 13.31575911 35 48.05 +06 01 08.3          20.1 GXEC153858
     K24C04B KC2024 02 13.32253811 35 51.11 +05 59 50.3          19.8 GXEC153858
     K24C04B KB2024 02 13.40582 11 36 27.76 +05 43 41.5          19.9 GVEC153734
     K24C04B KB2024 02 13.41465 11 36 31.82 +05 41 59.9          20.2 GVEC153734
     K24C04B KB2024 02 13.43232 11 36 39.96 +05 38 33.1          19.9 GVEC153734
     K24C04B KB2024 02 13.44116 11 36 44.01 +05 36 49.2          19.8 GVEC153734
     K24C04B KC2024 02 13.96117 11 41 13.50 +03 53 05.6                VEC153104
     K24C04B KC2024 02 13.96469511 41 14.84 +03 52 21.5          19.9 GVEC153L01
     K24C04B KC2024 02 13.96617611 41 15.57 +03 52 03.2          19.9 GVEC153L01
     K24C04B KC2024 02 13.96737 11 41 16.47 +03 51 50.2          20.0 GVEC153104
     K24C04B KC2024 02 13.96765711 41 16.27 +03 51 45.1          19.8 GVEC153L01
     K24C04B KC2024 02 13.96913911 41 16.97 +03 51 26.9          19.9 GVEC153L01
     K24C04B KC2024 02 13.97054211 41 17.66 +03 51 09.7          19.8 GVEC153L01
Observer details:
033 Karl Schwarzschild Observatory, Tautenburg.  Observers S. Melnikov, C.
    Hogner, F. Ludwig, M. Hartmann, B. Stecklum.  Measurer B. Stecklum.
    1.34-m f/3 Schmidt + CCD.
104 San Marcello Pistoiese.  Observers P. Bacci, M. Maestripieri.  Measurer P.
    Bacci.  0.60-m f/4.0 reflector + CCD.
204 Schiaparelli Observatory.  Observer L. Buzzi.  0.84-m f/3.5 reflector +
    CMO.
734 Farpoint Observatory, Eskridge.  Observers D. Cromer, G. Hug, D. Goodin,
    R. Valentine.  Measurer D. Cromer.  0.69-m f/3.54 reflector + CMO.
807 Cerro Tololo Observatory, La Serena.  Observers T. Linder, R. Holmes.
    0.61-m f/11 Ritchey-Chretien + CCD.
858 Tebbutt Observatory, Edgewood.  Observer F. B. Zoltowski.  0.51-m f/8.1
    Schmidt-Cassegrain + CCD.
958 Observatoire de Dax.  Observer P. Dupouy.  0.50-m f/4.5 Reflector + CMO.
F52 Pan-STARRS 2, Haleakala.  Observers J. Herman, T. Lowe, P. Minguez, A.
    Schultz, I. Smith.  Measurers K. Chambers, T. de Boer, J. Fairlamb, H.
    Gao, M. Huber, C.-C. Lin, E. Magnier, Y. Ramanjooloo, R. Wainscoat, R.
    Weryk.  1.8-m Ritchey-Chretien + CCD.
H01 Magdalena Ridge Observatory, Socorro.  Observers W. H. Ryan, E. V. Ryan.
    Measurer W. H. Ryan.  2.4-m f/8.9 Ritchey-Chretien + CCD.
I93 St Pardon de Conques.  Observer F. Losse.  0.40-m f/3.7 reflector + CCD.
L01 Visnjan Observatory, Tican.  Observer K. Korlevic.  1.0-m f/2.9 reflector
    + CCD.
Orbital elements:
2024 CB4                                                 Earth MOID = 0.0358 AU
Epoch 2023 Sept. 13.0 TT = JDT 2460200.5                MPC                     
M 291.33461              (2000.0)            P               Q                  
n   0.36974295     Peri.  216.75172     -0.99393141     +0.07316273             
a   1.9225137      Node   327.15600     -0.02115700     -0.85995260             
e   0.4902956      Incl.    8.71140     -0.10794779     -0.50510271             
P   2.67           H   24.50          G   0.15           U   7                  
Residuals in seconds of arc
240212 F52  0.0   0.1-    240213 204  0.1+  0.1-    240213 858  0.3-  0.3-
240212 F52  0.0   0.1+    240213 204  0.2+  0.1-    240213 734  0.7-  0.2-
240212 F52  0.2+  0.0     240213 807  0.3+  0.2-    240213 734  0.4-  0.9+
240212 F52  0.1-  0.2+    240213 807  0.2+  0.1-    240213 734  0.1-  0.1-
240212 I93  0.4+  0.1-    240213 807  0.1-  0.2+    240213 734  0.5-  0.8-
240213 I93  0.0   0.1-    240213 807  0.0   0.1-    240213 104  0.7+  0.3-
240213 958  0.2+  0.8-    240213 H01  0.1-  0.1-    240213 L01  0.2-  0.5+
240213 958  0.5-  0.3+    240213 H01  0.1-  0.1+    240213 L01  0.0   0.4+
240213 958  0.5+  0.8+    240213 H01  0.0   0.1-    240213 104  0.0   0.2+
240213 033  0.2+  0.1+    240213 H01  0.1-  0.2+    240213 L01  0.4-  0.4+
240213 033  0.5+  0.6+    240213 858  0.0   0.2-    240213 L01  0.6-  0.3+
240213 033  0.5-  0.3+    240213 858  0.1-  0.2-    240213 L01  0.5-  0.3+
Ephemeris:
2024 CB4                 a,e,i = 1.92, 0.49, 9                   q = 0.9799
Date    TT    R. A. (2000) Decl.     Delta      r    Elong.  Phase     V
2024 01 14    09 44 12.1 +34 57 09   0.2676  1.2217   149.5    24.1    23.2
...
2024 01 29    10 19 21.2 +29 58 37   0.1590  1.1310   155.1    21.5    21.8
...
2024 02 06    10 49 51.7 +22 11 30   0.1105  1.0884   156.8    20.9    20.9
...
2024 02 12    11 25 32.6 +09 57 52   0.08072 1.0600   153.7    24.4    20.3
2024 02 13    11 33 12.2 +07 01 46   0.07665 1.0556   152.1    25.9    20.2
2024 02 14    11 41 29.8 +03 46 38   0.07293 1.0513   150.1    27.9    20.2
...
2024 02 20    12 48 05.6 -21 47 41   0.06041 1.0277   129.1    48.3    20.3
...
2024 02 28    15 07 25.6 -51 07 23   0.07453 1.0029    97.6    78.2    21.6
...
2024 03 14    18 34 38.9 -58 24 35   0.1420  0.9802    80.2    91.6    23.5
A. U. Tomatic                (C) Copyright 2024 MPC           M.P.E.C. 2024-C153
    
    
More information about the Iaude
mailing list